User: anonymous   Login
Location: Unspecified
(0.0000°N, 0.0000°E)
Time: 20:23:24
(UTC+00:00)
Language:

STARLINK-35621 - Orbit

View from above orbital plane
View from above orbital plane
View from above satellite
View from above satellite

Ground track
Ground track

The orbit is defined by the following mean orbital elements,

1 66156U          26145.49089161 +.00000000 +00000-0 +50709-3 0 00007
2 66156  53.1599  66.3206 0001652  90.1557 269.9633 15.30205897    00
Epoch (UTC): 25 May 2026 11:46:53
Eccentricity: 0.0001652
inclination: 53.1599°
perigee height: 474 km
apogee height: 476 km
right ascension of ascending node: 66.3206°
argument of perigee: 90.1557°
revolutions per day: 15.30205897
mean anomaly at epoch: 269.9633°

The dashed part of the orbit path shows where the satellite is in the earth's shadow,  

DLR